Year,Month,Day,Hour,Minute,Value (Times are PST for temperature in C)
2008,05,23,00,00,9.80
2008,05,23,00,01,9.70
2008,05,23,00,02,9.70
2008,05,23,00,03,9.70
2008,05,23,00,04,9.70
2008,05,23,00,05,9.70
2008,05,23,00,06,9.70
2008,05,23,00,07,9.70
2008,05,23,00,08,9.70
2008,05,23,00,09,9.70
2008,05,23,00,10,9.70
2008,05,23,00,11,9.70
2008,05,23,00,12,9.70
2008,05,23,00,13,9.70
2008,05,23,00,14,9.70
2008,05,23,00,15,9.70
2008,05,23,00,16,9.70
2008,05,23,00,17,9.70
2008,05,23,00,18,9.70
2008,05,23,00,19,9.60
2008,05,23,00,20,9.70
2008,05,23,00,21,9.60
2008,05,23,00,22,9.60
2008,05,23,00,23,9.60
2008,05,23,00,24,9.60
2008,05,23,00,25,9.60
2008,05,23,00,26,9.60
2008,05,23,00,27,9.60
2008,05,23,00,28,9.60
2008,05,23,00,29,9.60
2008,05,23,00,30,9.60
2008,05,23,00,31,9.60
2008,05,23,00,32,9.60
2008,05,23,00,33,9.60
2008,05,23,00,34,9.60
2008,05,23,00,35,9.60
2008,05,23,00,36,9.60
2008,05,23,00,37,9.60
2008,05,23,00,38,9.60
2008,05,23,00,39,9.60
2008,05,23,00,40,9.60
2008,05,23,00,41,9.70
2008,05,23,00,42,9.70
2008,05,23,00,43,9.70
2008,05,23,00,44,9.60
2008,05,23,00,45,9.60
2008,05,23,00,46,9.60
2008,05,23,00,47,9.70
2008,05,23,00,48,9.60
2008,05,23,00,49,9.60
2008,05,23,00,50,9.60
2008,05,23,00,51,9.60
2008,05,23,00,52,9.60
2008,05,23,00,53,9.60
2008,05,23,00,54,9.60
2008,05,23,00,55,9.70
2008,05,23,00,56,9.60
2008,05,23,00,57,9.70
2008,05,23,00,58,9.70
2008,05,23,00,59,9.70
2008,05,23,01,00,9.70
2008,05,23,01,01,9.70
2008,05,23,01,02,9.70
2008,05,23,01,03,9.70
2008,05,23,01,04,9.70
2008,05,23,01,05,9.70
2008,05,23,01,06,9.70
2008,05,23,01,07,9.70
2008,05,23,01,08,9.60
2008,05,23,01,09,9.60
2008,05,23,01,10,9.60
2008,05,23,01,11,9.60
2008,05,23,01,12,9.60
2008,05,23,01,13,9.60
2008,05,23,01,14,9.60
2008,05,23,01,15,9.60
2008,05,23,01,16,9.60
2008,05,23,01,17,9.60
2008,05,23,01,18,9.60
2008,05,23,01,19,9.60
2008,05,23,01,20,9.60
2008,05,23,01,21,9.60
2008,05,23,01,22,9.60
2008,05,23,01,23,9.60
2008,05,23,01,24,9.60
2008,05,23,01,25,9.60
2008,05,23,01,26,9.60
2008,05,23,01,27,9.70
2008,05,23,01,28,9.70
2008,05,23,01,29,9.70
2008,05,23,01,30,9.70
2008,05,23,01,31,9.70
2008,05,23,01,32,9.70
2008,05,23,01,33,9.70
2008,05,23,01,34,9.70
2008,05,23,01,35,9.70
2008,05,23,01,36,9.70
2008,05,23,01,37,9.70
2008,05,23,01,38,9.70
2008,05,23,01,39,9.70
2008,05,23,01,40,9.70
2008,05,23,01,41,9.70
2008,05,23,01,42,9.80
2008,05,23,01,43,9.80
2008,05,23,01,44,9.80
2008,05,23,01,45,9.80
2008,05,23,01,46,9.80
2008,05,23,01,47,9.80
2008,05,23,01,48,9.80
2008,05,23,01,49,9.80
2008,05,23,01,50,9.80
2008,05,23,01,51,9.80
2008,05,23,01,52,9.80
2008,05,23,01,53,9.80
2008,05,23,01,54,9.80
2008,05,23,01,55,9.80
2008,05,23,01,56,9.80
2008,05,23,01,57,9.80
2008,05,23,01,58,9.80
2008,05,23,01,59,9.80
2008,05,23,02,00,9.80
2008,05,23,02,01,9.80
2008,05,23,02,02,9.80
2008,05,23,02,03,9.80
2008,05,23,02,04,9.80
2008,05,23,02,05,9.80
2008,05,23,02,06,9.80
2008,05,23,02,07,9.80
2008,05,23,02,08,9.70
2008,05,23,02,09,9.70
2008,05,23,02,10,9.80
2008,05,23,02,11,9.80
2008,05,23,02,12,9.80
2008,05,23,02,13,9.80
2008,05,23,02,14,9.80
2008,05,23,02,15,9.80
2008,05,23,02,16,9.80
2008,05,23,02,17,9.80
2008,05,23,02,18,9.80
2008,05,23,02,19,9.80
2008,05,23,02,20,9.80
2008,05,23,02,21,9.80
2008,05,23,02,22,9.80
2008,05,23,02,23,9.80
2008,05,23,02,24,9.80
2008,05,23,02,25,9.80
2008,05,23,02,26,9.80
2008,05,23,02,27,9.80
2008,05,23,02,28,9.80
2008,05,23,02,29,9.80
2008,05,23,02,30,9.80
2008,05,23,02,31,9.80
2008,05,23,02,32,9.80
2008,05,23,02,33,9.80
2008,05,23,02,34,9.80
2008,05,23,02,35,9.80
2008,05,23,02,36,9.80
2008,05,23,02,37,9.80
2008,05,23,02,38,9.80
2008,05,23,02,39,9.80
2008,05,23,02,40,9.80
2008,05,23,02,41,9.80
2008,05,23,02,42,9.80
2008,05,23,02,43,9.80
2008,05,23,02,44,9.80
2008,05,23,02,45,9.80
2008,05,23,02,46,9.80
2008,05,23,02,47,9.80
2008,05,23,02,48,9.80
2008,05,23,02,49,9.80
2008,05,23,02,50,9.80
2008,05,23,02,51,9.80
2008,05,23,02,52,9.80
2008,05,23,02,53,9.80
2008,05,23,02,54,9.80
2008,05,23,02,55,9.80
2008,05,23,02,56,9.80
2008,05,23,02,57,9.70
2008,05,23,02,58,9.70
2008,05,23,02,59,9.70
2008,05,23,03,00,9.80
2008,05,23,03,01,9.80
2008,05,23,03,02,9.80
2008,05,23,03,03,9.80
2008,05,23,03,04,9.80
2008,05,23,03,05,9.80
2008,05,23,03,06,9.80
2008,05,23,03,07,9.80
2008,05,23,03,08,9.80
2008,05,23,03,09,9.80
2008,05,23,03,10,9.80
2008,05,23,03,11,9.80
2008,05,23,03,12,9.80
2008,05,23,03,13,9.80
2008,05,23,03,14,9.80
2008,05,23,03,15,9.80
2008,05,23,03,16,9.80
2008,05,23,03,17,9.80
2008,05,23,03,18,9.80
2008,05,23,03,19,9.80
2008,05,23,03,20,9.90
2008,05,23,03,21,9.90
2008,05,23,03,22,9.90
2008,05,23,03,23,9.90
2008,05,23,03,24,9.90
2008,05,23,03,25,9.90
2008,05,23,03,26,9.90
2008,05,23,03,27,9.90
2008,05,23,03,28,9.90
2008,05,23,03,29,9.90
2008,05,23,03,30,9.90
2008,05,23,03,31,9.90
2008,05,23,03,32,9.90
2008,05,23,03,33,9.90
2008,05,23,03,34,9.90
2008,05,23,03,35,9.90
2008,05,23,03,36,9.90
2008,05,23,03,37,10.00
2008,05,23,03,38,10.00
2008,05,23,03,39,10.00
2008,05,23,03,40,9.90
2008,05,23,03,41,10.00
2008,05,23,03,42,9.90
2008,05,23,03,43,9.90
2008,05,23,03,44,9.90
2008,05,23,03,45,9.90
2008,05,23,03,46,9.90
2008,05,23,03,47,9.90
2008,05,23,03,48,9.90
2008,05,23,03,49,9.90
2008,05,23,03,50,9.80
2008,05,23,03,51,9.80
2008,05,23,03,52,9.80
2008,05,23,03,53,9.80
2008,05,23,03,54,9.80
2008,05,23,03,55,9.80
2008,05,23,03,56,9.80
2008,05,23,03,57,9.80
2008,05,23,03,58,9.80
2008,05,23,03,59,9.80
2008,05,23,04,00,9.80
2008,05,23,04,01,9.80
2008,05,23,04,02,9.80
2008,05,23,04,03,9.80
2008,05,23,04,04,9.80
2008,05,23,04,05,9.80
2008,05,23,04,06,9.80
2008,05,23,04,07,9.80
2008,05,23,04,08,9.80
2008,05,23,04,09,9.70
2008,05,23,04,10,9.70
2008,05,23,04,11,9.70
2008,05,23,04,12,9.70
2008,05,23,04,13,9.70
2008,05,23,04,14,9.70
2008,05,23,04,15,9.70
2008,05,23,04,16,9.70
2008,05,23,04,17,9.70
2008,05,23,04,18,9.70
2008,05,23,04,19,9.70
2008,05,23,04,20,9.70
2008,05,23,04,21,9.70
2008,05,23,04,22,9.70
2008,05,23,04,23,9.70
2008,05,23,04,24,9.70
2008,05,23,04,25,9.70
2008,05,23,04,26,9.70
2008,05,23,04,27,9.60
2008,05,23,04,28,9.60
2008,05,23,04,29,9.60
2008,05,23,04,30,9.60
2008,05,23,04,31,9.60
2008,05,23,04,32,9.60
2008,05,23,04,33,9.60
2008,05,23,04,34,9.70
2008,05,23,04,35,9.70
2008,05,23,04,36,9.70
2008,05,23,04,37,9.70
2008,05,23,04,38,9.70
2008,05,23,04,39,9.60
2008,05,23,04,40,9.60
2008,05,23,04,41,9.60
2008,05,23,04,42,9.50
2008,05,23,04,43,9.50
2008,05,23,04,44,9.50
2008,05,23,04,45,9.40
2008,05,23,04,46,9.40
2008,05,23,04,47,9.40
2008,05,23,04,48,9.40
2008,05,23,04,49,9.40
2008,05,23,04,50,9.40
2008,05,23,04,51,9.40
2008,05,23,04,52,9.40
2008,05,23,04,53,9.30
2008,05,23,04,54,9.40
2008,05,23,04,55,9.40
2008,05,23,04,56,9.40
2008,05,23,04,57,9.40
2008,05,23,04,58,9.40
2008,05,23,04,59,9.40
2008,05,23,05,00,9.40
2008,05,23,05,01,9.40
2008,05,23,05,02,9.30
2008,05,23,05,03,9.40
2008,05,23,05,04,9.40
2008,05,23,05,05,9.40
2008,05,23,05,06,9.40
2008,05,23,05,07,9.40
2008,05,23,05,08,9.40
2008,05,23,05,09,9.40
2008,05,23,05,10,9.40
2008,05,23,05,11,9.40
2008,05,23,05,12,9.40
2008,05,23,05,13,9.40
2008,05,23,05,14,9.40
2008,05,23,05,15,9.40
2008,05,23,05,16,9.40
2008,05,23,05,17,9.40
2008,05,23,05,18,9.40
2008,05,23,05,19,9.40
2008,05,23,05,20,9.40
2008,05,23,05,21,9.50
2008,05,23,05,22,9.50
2008,05,23,05,23,9.50
2008,05,23,05,24,9.50
2008,05,23,05,25,9.60
2008,05,23,05,26,9.60
2008,05,23,05,27,9.60
2008,05,23,05,28,9.60
2008,05,23,05,29,9.60
2008,05,23,05,30,9.60
2008,05,23,05,31,9.60
2008,05,23,05,32,9.60
2008,05,23,05,33,9.60
2008,05,23,05,34,9.60
2008,05,23,05,35,9.60
2008,05,23,05,36,9.60
2008,05,23,05,37,9.60
2008,05,23,05,38,9.60
2008,05,23,05,39,9.60
2008,05,23,05,40,9.60
2008,05,23,05,41,9.60
2008,05,23,05,42,9.60
2008,05,23,05,43,9.60
2008,05,23,05,44,9.60
2008,05,23,05,45,9.60
2008,05,23,05,46,9.60
2008,05,23,05,47,9.60
2008,05,23,05,48,9.60
2008,05,23,05,49,9.60
2008,05,23,05,50,9.60
2008,05,23,05,51,9.60
2008,05,23,05,52,9.60
2008,05,23,05,53,9.60
2008,05,23,05,54,9.60
2008,05,23,05,55,9.60
2008,05,23,05,56,9.60
2008,05,23,05,57,9.60
2008,05,23,05,58,9.60
2008,05,23,05,59,9.60
2008,05,23,06,00,9.60
2008,05,23,06,01,9.60
2008,05,23,06,02,9.60
2008,05,23,06,03,9.60
2008,05,23,06,04,9.60
2008,05,23,06,05,9.60
2008,05,23,06,06,9.60
2008,05,23,06,07,9.60
2008,05,23,06,08,9.70
2008,05,23,06,09,9.70
2008,05,23,06,10,9.70
2008,05,23,06,11,9.70
2008,05,23,06,12,9.70
2008,05,23,06,13,9.70
2008,05,23,06,14,9.70
2008,05,23,06,15,9.70
2008,05,23,06,16,9.70
2008,05,23,06,17,9.70
2008,05,23,06,18,9.70
2008,05,23,06,19,9.70
2008,05,23,06,20,9.70
2008,05,23,06,21,9.70
2008,05,23,06,22,9.70
2008,05,23,06,23,9.70
2008,05,23,06,24,9.70
2008,05,23,06,25,9.70
2008,05,23,06,26,9.70
2008,05,23,06,27,9.70
2008,05,23,06,28,9.70
2008,05,23,06,29,9.70
2008,05,23,06,30,9.70
2008,05,23,06,31,9.70
2008,05,23,06,32,9.70
2008,05,23,06,33,9.70
2008,05,23,06,34,9.70
2008,05,23,06,35,9.70
2008,05,23,06,36,9.70
2008,05,23,06,37,9.80
2008,05,23,06,38,9.80
2008,05,23,06,39,9.80
2008,05,23,06,40,9.80
2008,05,23,06,41,9.80
2008,05,23,06,42,9.90
2008,05,23,06,43,9.90
2008,05,23,06,44,9.90
2008,05,23,06,45,9.90
2008,05,23,06,46,9.90
2008,05,23,06,47,10.00
2008,05,23,06,48,10.00
2008,05,23,06,49,10.00
2008,05,23,06,50,10.00
2008,05,23,06,51,10.00
2008,05,23,06,52,10.00
2008,05,23,06,53,10.00
2008,05,23,06,54,9.90
2008,05,23,06,55,9.90
2008,05,23,06,56,9.90
2008,05,23,06,57,9.90
2008,05,23,06,58,9.90
2008,05,23,06,59,9.90
2008,05,23,07,00,9.90
2008,05,23,07,01,9.90
2008,05,23,07,02,9.90
2008,05,23,07,03,9.90
2008,05,23,07,04,10.00
2008,05,23,07,05,9.90
2008,05,23,07,06,10.00
2008,05,23,07,07,10.00
2008,05,23,07,08,10.00
2008,05,23,07,09,10.00
2008,05,23,07,10,10.00
2008,05,23,07,11,10.00
2008,05,23,07,12,10.00
2008,05,23,07,13,10.10
2008,05,23,07,14,10.10
2008,05,23,07,15,10.10
2008,05,23,07,16,10.10
2008,05,23,07,17,10.10
2008,05,23,07,18,10.10
2008,05,23,07,19,10.10
2008,05,23,07,20,10.10
2008,05,23,07,21,10.10
2008,05,23,07,22,10.10
2008,05,23,07,23,10.10
2008,05,23,07,24,10.10
2008,05,23,07,25,10.10
2008,05,23,07,26,10.10
2008,05,23,07,27,10.10
2008,05,23,07,28,10.10
2008,05,23,07,29,10.20
2008,05,23,07,30,10.20
2008,05,23,07,31,10.20
2008,05,23,07,32,10.20
2008,05,23,07,33,10.20
2008,05,23,07,34,10.30
2008,05,23,07,35,10.30
2008,05,23,07,36,10.40
2008,05,23,07,37,10.40
2008,05,23,07,38,10.50
2008,05,23,07,39,10.50
2008,05,23,07,40,10.60
2008,05,23,07,41,10.60
2008,05,23,07,42,10.60
2008,05,23,07,43,10.70
2008,05,23,07,44,10.70
2008,05,23,07,45,10.80
2008,05,23,07,46,10.80
2008,05,23,07,47,10.80
2008,05,23,07,48,10.80
2008,05,23,07,49,10.90
2008,05,23,07,50,10.90
2008,05,23,07,51,10.90
2008,05,23,07,52,11.00
2008,05,23,07,53,11.00
2008,05,23,07,54,11.10
2008,05,23,07,55,11.10
2008,05,23,07,56,11.20
2008,05,23,07,57,11.20
2008,05,23,07,58,11.20
2008,05,23,07,59,11.20
2008,05,23,08,00,11.20
2008,05,23,08,01,11.30
2008,05,23,08,02,11.30
2008,05,23,08,03,11.30
2008,05,23,08,04,11.30
2008,05,23,08,05,11.40
2008,05,23,08,06,11.40
2008,05,23,08,07,11.50
2008,05,23,08,08,11.50
2008,05,23,08,09,11.60
2008,05,23,08,10,11.60
2008,05,23,08,11,11.50
2008,05,23,08,12,11.50
2008,05,23,08,13,11.60
2008,05,23,08,14,11.60
2008,05,23,08,15,11.60
2008,05,23,08,16,11.60
2008,05,23,08,17,11.60
2008,05,23,08,18,11.70
2008,05,23,08,19,11.70
2008,05,23,08,20,11.70
2008,05,23,08,21,11.80
2008,05,23,08,22,11.80
2008,05,23,08,23,11.90
2008,05,23,08,24,12.00
2008,05,23,08,25,12.00
2008,05,23,08,26,11.90
2008,05,23,08,27,11.90
2008,05,23,08,28,11.90
2008,05,23,08,29,11.80
2008,05,23,08,30,11.80
2008,05,23,08,31,11.80
2008,05,23,08,32,11.70
2008,05,23,08,33,11.70
2008,05,23,08,34,11.70
2008,05,23,08,35,11.80
2008,05,23,08,36,11.80
2008,05,23,08,37,11.90
2008,05,23,08,38,11.90
2008,05,23,08,39,11.90
2008,05,23,08,40,11.90
2008,05,23,08,41,11.90
2008,05,23,08,42,12.00
2008,05,23,08,43,12.00
2008,05,23,08,44,12.00
2008,05,23,08,45,12.00
2008,05,23,08,46,12.10
2008,05,23,08,47,12.10
2008,05,23,08,48,12.10
2008,05,23,08,49,12.10
2008,05,23,08,50,12.20
2008,05,23,08,51,12.20
2008,05,23,08,52,12.20
2008,05,23,08,53,12.20
2008,05,23,08,54,12.20
2008,05,23,08,55,12.30
2008,05,23,08,56,12.30
2008,05,23,08,57,12.30
2008,05,23,08,58,12.40
2008,05,23,08,59,12.60
2008,05,23,09,00,12.60
2008,05,23,09,01,12.60
2008,05,23,09,02,12.70
2008,05,23,09,03,12.70
2008,05,23,09,04,12.70
2008,05,23,09,05,12.70
2008,05,23,09,06,12.70
2008,05,23,09,07,12.80
2008,05,23,09,08,12.80
2008,05,23,09,09,12.90
2008,05,23,09,10,12.90
2008,05,23,09,11,13.00
2008,05,23,09,12,13.10
2008,05,23,09,13,13.30
2008,05,23,09,14,13.30
2008,05,23,09,15,13.40
2008,05,23,09,16,13.40
2008,05,23,09,17,13.30
2008,05,23,09,18,13.20
2008,05,23,09,19,13.20
2008,05,23,09,20,13.20
2008,05,23,09,21,13.20
2008,05,23,09,22,13.20
2008,05,23,09,23,13.20
2008,05,23,09,24,13.20
2008,05,23,09,25,13.20
2008,05,23,09,26,13.20
2008,05,23,09,27,13.20
2008,05,23,09,28,13.20
2008,05,23,09,29,13.30
2008,05,23,09,30,13.30
2008,05,23,09,31,13.30
2008,05,23,09,32,13.30
2008,05,23,09,33,13.30
2008,05,23,09,34,13.40
2008,05,23,09,35,13.40
2008,05,23,09,36,13.50
2008,05,23,09,37,13.60
2008,05,23,09,38,13.50
2008,05,23,09,39,13.50
2008,05,23,09,40,13.40
2008,05,23,09,41,13.30
2008,05,23,09,42,13.30
2008,05,23,09,43,13.30
2008,05,23,09,44,13.30
2008,05,23,09,45,13.30
2008,05,23,09,46,13.30
2008,05,23,09,47,13.30
2008,05,23,09,48,13.40
2008,05,23,09,49,13.40
2008,05,23,09,50,13.50
2008,05,23,09,51,13.60
2008,05,23,09,52,13.70
2008,05,23,09,53,13.70
2008,05,23,09,54,13.80
2008,05,23,09,55,13.80
2008,05,23,09,56,13.80
2008,05,23,09,57,13.80
2008,05,23,09,58,13.80
2008,05,23,09,59,13.70
2008,05,23,10,00,13.70
2008,05,23,10,01,13.70
2008,05,23,10,02,13.70
2008,05,23,10,03,13.70
2008,05,23,10,04,13.70
2008,05,23,10,05,13.80
2008,05,23,10,06,13.80
2008,05,23,10,07,13.80
2008,05,23,10,08,13.80
2008,05,23,10,09,13.90
2008,05,23,10,10,13.90
2008,05,23,10,11,14.00
2008,05,23,10,12,14.00
2008,05,23,10,13,14.10
2008,05,23,10,14,14.10
2008,05,23,10,15,14.10
2008,05,23,10,16,14.10
2008,05,23,10,17,14.20
2008,05,23,10,18,14.20
2008,05,23,10,19,14.30
2008,05,23,10,20,14.30
2008,05,23,10,21,14.30
2008,05,23,10,22,14.30
2008,05,23,10,23,14.30
2008,05,23,10,24,14.30
2008,05,23,10,25,14.30
2008,05,23,10,26,14.30
2008,05,23,10,27,14.40
2008,05,23,10,28,14.40
2008,05,23,10,29,14.40
2008,05,23,10,30,14.40
2008,05,23,10,31,14.40
2008,05,23,10,32,14.40
2008,05,23,10,33,14.40
2008,05,23,10,34,14.40
2008,05,23,10,35,14.60
2008,05,23,10,36,14.60
2008,05,23,10,37,14.60
2008,05,23,10,38,14.60
2008,05,23,10,39,14.70
2008,05,23,10,40,14.70
2008,05,23,10,41,14.70
2008,05,23,10,42,14.70
2008,05,23,10,43,14.70
2008,05,23,10,44,14.70
2008,05,23,10,45,14.80
2008,05,23,10,46,14.80
2008,05,23,10,47,14.70
2008,05,23,10,48,14.70
2008,05,23,10,49,14.70
2008,05,23,10,50,14.70
2008,05,23,10,51,14.70
2008,05,23,10,52,14.70
2008,05,23,10,53,14.70
2008,05,23,10,54,14.70
2008,05,23,10,55,14.70
2008,05,23,10,56,14.60
2008,05,23,10,57,14.70
2008,05,23,10,58,14.70
2008,05,23,10,59,14.70
2008,05,23,11,00,14.80
2008,05,23,11,01,14.80
2008,05,23,11,02,14.80
2008,05,23,11,03,14.80
2008,05,23,11,04,14.80
2008,05,23,11,05,14.70
2008,05,23,11,06,14.70
2008,05,23,11,07,14.70
2008,05,23,11,08,14.70
2008,05,23,11,09,14.70
2008,05,23,11,10,14.70
2008,05,23,11,11,14.70
2008,05,23,11,12,14.70
2008,05,23,11,13,14.70
2008,05,23,11,14,14.70
2008,05,23,11,15,14.70
2008,05,23,11,16,14.70
2008,05,23,11,17,14.70
2008,05,23,11,18,14.80
2008,05,23,11,19,14.80
2008,05,23,11,20,14.80
2008,05,23,11,21,14.80
2008,05,23,11,22,14.80
2008,05,23,11,23,14.70
2008,05,23,11,24,14.70
2008,05,23,11,25,14.70
2008,05,23,11,26,14.70
2008,05,23,11,27,14.70
2008,05,23,11,28,14.70
2008,05,23,11,29,14.70
2008,05,23,11,30,14.70
2008,05,23,11,31,14.70
2008,05,23,11,32,14.70
2008,05,23,11,33,14.70
2008,05,23,11,34,14.70
2008,05,23,11,35,14.80
2008,05,23,11,36,14.90
2008,05,23,11,37,14.90
2008,05,23,11,38,15.00
2008,05,23,11,39,15.00
2008,05,23,11,40,15.00
2008,05,23,11,41,15.00
2008,05,23,11,42,15.00
2008,05,23,11,43,15.00
2008,05,23,11,44,15.00
2008,05,23,11,45,15.00
2008,05,23,11,46,15.00
2008,05,23,11,47,15.00
2008,05,23,11,48,15.00
2008,05,23,11,49,15.00
2008,05,23,11,50,15.00
2008,05,23,11,51,15.00
2008,05,23,11,52,15.10
2008,05,23,11,53,15.20
2008,05,23,11,54,15.30
2008,05,23,11,55,15.30
2008,05,23,11,56,15.30
2008,05,23,11,57,15.20
2008,05,23,11,58,15.20
2008,05,23,11,59,15.20
2008,05,23,12,00,15.20
2008,05,23,12,01,15.20
2008,05,23,12,02,15.20
2008,05,23,12,03,15.30
2008,05,23,12,04,15.30
2008,05,23,12,05,15.30
2008,05,23,12,06,15.40
2008,05,23,12,07,15.50
2008,05,23,12,08,15.50
2008,05,23,12,09,15.60
2008,05,23,12,10,15.60
2008,05,23,12,11,15.60
2008,05,23,12,12,15.60
2008,05,23,12,13,15.60
2008,05,23,12,14,15.60
2008,05,23,12,15,15.60
2008,05,23,12,16,15.60
2008,05,23,12,17,15.60
2008,05,23,12,18,15.70
2008,05,23,12,19,15.70
2008,05,23,12,20,15.80
2008,05,23,12,21,15.80
2008,05,23,12,22,15.80
2008,05,23,12,23,15.90
2008,05,23,12,24,15.90
2008,05,23,12,25,15.90
2008,05,23,12,26,15.90
2008,05,23,12,27,15.90
2008,05,23,12,28,15.90
2008,05,23,12,29,15.90
2008,05,23,12,30,15.90
2008,05,23,12,31,15.90
2008,05,23,12,32,16.00
2008,05,23,12,33,15.90
2008,05,23,12,34,16.00
2008,05,23,12,35,16.10
2008,05,23,12,36,16.10
2008,05,23,12,37,16.10
2008,05,23,12,38,16.00
2008,05,23,12,39,16.00
2008,05,23,12,40,15.90
2008,05,23,12,41,15.90
2008,05,23,12,42,15.90
2008,05,23,12,43,16.00
2008,05,23,12,44,16.00
2008,05,23,12,45,16.00
2008,05,23,12,46,16.00
2008,05,23,12,47,16.00
2008,05,23,12,48,16.00
2008,05,23,12,49,16.00
2008,05,23,12,50,16.00
2008,05,23,12,51,16.10
2008,05,23,12,52,16.10
2008,05,23,12,53,16.10
2008,05,23,12,54,16.10
2008,05,23,12,55,16.20
2008,05,23,12,56,16.30
2008,05,23,12,57,16.30
2008,05,23,12,58,16.30
2008,05,23,12,59,16.30
2008,05,23,13,00,16.40
2008,05,23,13,01,16.50
2008,05,23,13,02,16.50
2008,05,23,13,03,16.60
2008,05,23,13,04,16.70
2008,05,23,13,05,16.80
2008,05,23,13,06,17.00
2008,05,23,13,07,17.10
2008,05,23,13,08,17.30
2008,05,23,13,09,17.40
2008,05,23,13,10,17.40
2008,05,23,13,11,17.40
2008,05,23,13,12,17.50
2008,05,23,13,13,17.50
2008,05,23,13,14,17.60
2008,05,23,13,15,17.70
2008,05,23,13,16,17.60
2008,05,23,13,17,17.70
2008,05,23,13,18,17.70
2008,05,23,13,19,17.80
2008,05,23,13,20,17.90
2008,05,23,13,21,17.90
2008,05,23,13,22,18.00
2008,05,23,13,23,18.10
2008,05,23,13,24,18.00
2008,05,23,13,25,17.90
2008,05,23,13,26,17.80
2008,05,23,13,27,17.80
2008,05,23,13,28,17.80
2008,05,23,13,29,17.70
2008,05,23,13,30,17.70
2008,05,23,13,31,17.70
2008,05,23,13,32,17.60
2008,05,23,13,33,17.70
2008,05,23,13,34,17.60
2008,05,23,13,35,17.60
2008,05,23,13,36,17.60
2008,05,23,13,37,17.70
2008,05,23,13,38,17.70
2008,05,23,13,39,17.80
2008,05,23,13,40,17.80
2008,05,23,13,41,17.90
2008,05,23,13,42,18.00
2008,05,23,13,43,18.00
2008,05,23,13,44,18.10
2008,05,23,13,45,18.20
2008,05,23,13,46,18.20
2008,05,23,13,47,18.10
2008,05,23,13,48,18.10
2008,05,23,13,49,18.10
2008,05,23,13,50,18.10
2008,05,23,13,51,18.20
2008,05,23,13,52,18.30
2008,05,23,13,53,18.40
2008,05,23,13,54,18.50
2008,05,23,13,55,18.60
2008,05,23,13,56,18.70
2008,05,23,13,57,18.80
2008,05,23,13,58,18.80
2008,05,23,13,59,18.80
2008,05,23,14,00,18.80
2008,05,23,14,01,18.90
2008,05,23,14,02,18.90
2008,05,23,14,03,19.00
2008,05,23,14,04,19.00
2008,05,23,14,05,19.10
2008,05,23,14,06,19.10
2008,05,23,14,07,19.10
2008,05,23,14,08,19.10
2008,05,23,14,09,19.20
2008,05,23,14,10,19.20
2008,05,23,14,11,19.30
2008,05,23,14,12,19.40
2008,05,23,14,13,19.50
2008,05,23,14,14,19.60
2008,05,23,14,15,19.70
2008,05,23,14,16,19.70
2008,05,23,14,17,19.80
2008,05,23,14,18,19.80
2008,05,23,14,19,19.90
2008,05,23,14,20,20.00
2008,05,23,14,21,20.00
2008,05,23,14,22,20.00
2008,05,23,14,23,20.00
2008,05,23,14,24,19.90
2008,05,23,14,25,19.90
2008,05,23,14,26,19.90
2008,05,23,14,27,19.80
2008,05,23,14,28,19.80
2008,05,23,14,29,19.70
2008,05,23,14,30,19.70
2008,05,23,14,31,19.70
2008,05,23,14,32,19.70
2008,05,23,14,33,19.70
2008,05,23,14,34,19.70
2008,05,23,14,35,19.70
2008,05,23,14,36,19.70
2008,05,23,14,37,19.80
2008,05,23,14,38,19.80
2008,05,23,14,39,19.80
2008,05,23,14,40,19.70
2008,05,23,14,41,19.70
2008,05,23,14,42,19.70
2008,05,23,14,43,19.70
2008,05,23,14,44,19.70
2008,05,23,14,45,19.70
2008,05,23,14,46,19.70
2008,05,23,14,47,19.80
2008,05,23,14,48,19.80
2008,05,23,14,49,19.70
2008,05,23,14,50,19.70
2008,05,23,14,51,19.70
2008,05,23,14,52,19.70
2008,05,23,14,53,19.70
2008,05,23,14,54,19.80
2008,05,23,14,55,19.80
2008,05,23,14,56,19.80
2008,05,23,14,57,19.70
2008,05,23,14,58,19.70
2008,05,23,14,59,19.70
2008,05,23,15,00,19.70
2008,05,23,15,01,19.70
2008,05,23,15,02,19.70
2008,05,23,15,03,19.70
2008,05,23,15,04,19.70
2008,05,23,15,05,19.70
2008,05,23,15,06,19.70
2008,05,23,15,07,19.70
2008,05,23,15,08,19.70
2008,05,23,15,09,19.70
2008,05,23,15,10,19.70
2008,05,23,15,11,19.70
2008,05,23,15,12,19.70
2008,05,23,15,13,19.70
2008,05,23,15,14,19.70
2008,05,23,15,15,19.70
2008,05,23,15,16,19.70
2008,05,23,15,17,19.60
2008,05,23,15,18,19.60
2008,05,23,15,19,19.60
2008,05,23,15,20,19.60
2008,05,23,15,21,19.60
2008,05,23,15,22,19.60
2008,05,23,15,23,19.60
2008,05,23,15,24,19.60
2008,05,23,15,25,19.60
2008,05,23,15,26,19.60
2008,05,23,15,27,19.60
2008,05,23,15,28,19.60
2008,05,23,15,29,19.60
2008,05,23,15,30,19.60
2008,05,23,15,31,19.70
2008,05,23,15,32,19.70
2008,05,23,15,33,19.70
2008,05,23,15,34,19.70
2008,05,23,15,35,19.70
2008,05,23,15,36,19.70
2008,05,23,15,37,19.80
2008,05,23,15,38,19.80
2008,05,23,15,39,19.80
2008,05,23,15,40,19.80
2008,05,23,15,41,19.80
2008,05,23,15,42,19.90
2008,05,23,15,43,19.90
2008,05,23,15,44,20.00
2008,05,23,15,45,20.00
2008,05,23,15,46,20.00
2008,05,23,15,47,20.00
2008,05,23,15,48,20.00
2008,05,23,15,49,20.00
2008,05,23,15,50,20.00
2008,05,23,15,51,20.00
2008,05,23,15,52,19.90
2008,05,23,15,53,19.90
2008,05,23,15,54,20.00
2008,05,23,15,55,20.00
2008,05,23,15,56,20.00
2008,05,23,15,57,20.00
2008,05,23,15,58,19.90
2008,05,23,15,59,19.90
2008,05,23,16,00,19.90
2008,05,23,16,01,20.00
2008,05,23,16,02,20.00
2008,05,23,16,03,20.10
2008,05,23,16,04,20.10
2008,05,23,16,05,20.20
2008,05,23,16,06,20.20
2008,05,23,16,07,20.30
2008,05,23,16,08,20.30
2008,05,23,16,09,20.30
2008,05,23,16,10,20.30
2008,05,23,16,11,20.40
2008,05,23,16,12,20.50
2008,05,23,16,13,20.60
2008,05,23,16,14,20.60
2008,05,23,16,15,20.70
2008,05,23,16,16,20.70
2008,05,23,16,17,20.70
2008,05,23,16,18,20.70
2008,05,23,16,19,20.70
2008,05,23,16,20,20.70
2008,05,23,16,21,20.60
2008,05,23,16,22,20.60
2008,05,23,16,23,20.60
2008,05,23,16,24,20.60
2008,05,23,16,25,20.60
2008,05,23,16,26,20.60
2008,05,23,16,27,20.60
2008,05,23,16,28,20.60
2008,05,23,16,29,20.60
2008,05,23,16,30,20.60
2008,05,23,16,31,20.60
2008,05,23,16,32,20.60
2008,05,23,16,33,20.50
2008,05,23,16,34,20.50
2008,05,23,16,35,20.50
2008,05,23,16,36,20.50
2008,05,23,16,37,20.50
2008,05,23,16,38,20.40
2008,05,23,16,39,20.40
2008,05,23,16,40,20.40
2008,05,23,16,41,20.40
2008,05,23,16,42,20.40
2008,05,23,16,43,20.30
2008,05,23,16,44,20.30
2008,05,23,16,45,20.30
2008,05,23,16,46,20.30
2008,05,23,16,47,20.30
2008,05,23,16,48,20.30
2008,05,23,16,49,20.40
2008,05,23,16,50,20.30
2008,05,23,16,51,20.30
2008,05,23,16,52,20.30
2008,05,23,16,53,20.30
2008,05,23,16,54,20.30
2008,05,23,16,55,20.30
2008,05,23,16,56,20.30
2008,05,23,16,57,20.30
2008,05,23,16,58,20.30
2008,05,23,16,59,20.20
2008,05,23,17,00,20.20
2008,05,23,17,01,20.20
2008,05,23,17,02,20.20
2008,05,23,17,03,20.20
2008,05,23,17,04,20.20
2008,05,23,17,05,20.20
2008,05,23,17,06,20.20
2008,05,23,17,07,20.20
2008,05,23,17,08,20.20
2008,05,23,17,09,20.20
2008,05,23,17,10,20.20
2008,05,23,17,11,20.20
2008,05,23,17,12,20.20
2008,05,23,17,13,20.10
2008,05,23,17,14,20.10
2008,05,23,17,15,20.10
2008,05,23,17,16,20.10
2008,05,23,17,17,20.10
2008,05,23,17,18,20.10
2008,05,23,17,19,20.10
2008,05,23,17,20,20.10
2008,05,23,17,21,20.10
2008,05,23,17,22,20.20
2008,05,23,17,23,20.20
2008,05,23,17,24,20.20
2008,05,23,17,25,20.20
2008,05,23,17,26,20.20
2008,05,23,17,27,20.20
2008,05,23,17,28,20.20
2008,05,23,17,29,20.20
2008,05,23,17,30,20.20
2008,05,23,17,31,20.20
2008,05,23,17,32,20.20
2008,05,23,17,33,20.20
2008,05,23,17,34,20.20
2008,05,23,17,35,20.20
2008,05,23,17,36,20.20
2008,05,23,17,37,20.20